Vorticity
8 4 3 12 11 -5 11 4 5 5 10 7 11 14 14 19 18 12 8 6 6 3 35 -16 14 3 -6 5 16 7 5 7
7 10 3 -2 9 5 9 7 6 9 10 7 13 15 14 18 33 16 4 20 -5 3 3 8 -3 9 19 9 9 11 5 7
9 14 21 5 4 10 -2 6 6 6 11 8 13 12 15 13 17 28 14 -1 10 14 20 -21 20 -8 -14 19 1 12 6 3
7 6 13 -0 3 14 1 2 5 4 10 9 12 11 15 7 18 18 33 13 9 -4 20 8 -14 -16 30 24 -0 18 9 7
6 4 4 -2 3 11 2 3 5 5 8 10 10 10 14 13 12 12 11 18 18 17 2 -5 -6 31 1 -19 27 7 6 7
6 2 14 8 3 10 5 1 4 6 7 10 9 10 14 13 13 11 20 14 17 13 28 1 -11 9 5 12 13 8 3 3
6 14 9 14 9 4 11 -0 5 7 7 9 8 9 10 16 15 17 3 6 17 6 9 9 18 2 21 48 0 -10 39 -0
-6 2 9 6 19 17 10 -1 7 8 6 10 7 7 9 13 19 22 20 15 13 23 24 3 5 50 57 49 -2 22 10 17
14 -2 38 25 19 8 7 -0 9 7 5 10 7 6 7 11 18 34 14 15 6 16 13 23 11 4 10 5 23 14 28 7
13 16 18 13 7 8 8 2 11 7 5 11 7 5 5 7 13 25 24 13 3 -2 -2 6 12 8 14 30 7 -13 44 -7
27 23 16 8 8 16 3 11 13 7 5 10 8 4 3 4 8 17 16 20 11 11 6 6 8 5 13 -4 -6 9 -0 14
30 18 8 8 13 7 9 15 17 7 4 5 12 6 4 3 4 8 15 16 18 7 11 10 8 9 13 23 16 28 1 11
20 21 9 17 9 5 4 10 7 18 10 5 6 9 5 4 4 5 5 11 13 18 11 12 9 9 8 11 10 17 22 18
11 15 20 2 5 3 8 8 5 9 15 15 5 6 8 5 5 4 4 4 6 7 8 13 13 14 10 9 15 15 10 10
12 2 3 4 -3 -1 3 5 6 16 9 11 17 4 5 4 6 5 4 4 4 3 4 5 6 5 7 10 10 9 7 16
29 37 24 13 10 12 5 6 1 -1 17 14 18 10 5 6 7 6 6 4 3 3 3 2 4 5 5 4 5 5 8 8
-6 16 23 24 26 24 10 31 -12 2 2 2 6 10 18 11 10 9 6 6 5 8 6 5 4 3 4 6 5 4 5 4
-0 12 -10 11 7 7 5 7 11 12 9 11 -3 6 1 3 6 9 11 15 18 15 12 7 5 6 7 6 6 6 7 7
-0 4 18 8 7 12 10 9 10 9 9 4 14 11 7 -1 -4 -9 -1 4 6 4 6 15 19 25 25 16 9 9 10 7
Height
3065 3068 3070 3072 3073 3074 3073 3072 3071 3069 3068 3067 3065 3063 3061 3060 3062 3065 3068 3071 3076 3078 3080 3084 3090 3093 3096 3100 3104 3107 3112 3117
3058 3060 3064 3067 3068 3069 3069 3068 3067 3066 3065 3063 3061 3059 3057 3055 3055 3059 3063 3065 3071 3072 3078 3081 3081 3087 3093 3097 3100 3103 3107 3112
3050 3053 3057 3060 3062 3064 3065 3064 3063 3063 3061 3060 3057 3055 3052 3051 3050 3052 3056 3060 3064 3069 3070 3071 3081 3085 3087 3091 3094 3096 3103 3108
3044 3046 3051 3054 3057 3058 3061 3061 3060 3059 3058 3056 3054 3052 3050 3049 3048 3047 3050 3054 3058 3062 3064 3070 3075 3079 3080 3085 3089 3091 3098 3103
3037 3041 3044 3049 3052 3053 3057 3057 3056 3056 3055 3053 3051 3049 3048 3047 3046 3044 3045 3048 3052 3054 3061 3065 3066 3072 3076 3080 3085 3088 3095 3100
3031 3034 3038 3042 3046 3049 3052 3053 3053 3053 3052 3051 3049 3047 3046 3045 3044 3042 3041 3043 3047 3051 3055 3059 3061 3067 3071 3074 3078 3082 3087 3096
3024 3029 3031 3034 3040 3044 3047 3048 3049 3049 3049 3048 3047 3046 3044 3043 3042 3041 3041 3042 3044 3047 3051 3053 3057 3059 3063 3066 3071 3078 3082 3088
3017 3020 3023 3026 3033 3038 3041 3044 3045 3046 3047 3046 3046 3045 3044 3042 3040 3039 3040 3041 3043 3045 3047 3050 3052 3057 3060 3065 3071 3073 3079 3084
3009 3014 3015 3020 3027 3032 3036 3039 3041 3043 3043 3043 3044 3044 3043 3042 3039 3037 3039 3041 3043 3043 3045 3048 3052 3057 3061 3064 3067 3073 3077 3081
3001 3006 3011 3016 3021 3027 3032 3035 3037 3039 3040 3041 3042 3041 3041 3041 3039 3037 3037 3040 3041 3043 3046 3048 3052 3054 3058 3061 3065 3069 3073 3076
2994 2998 3006 3012 3017 3023 3028 3031 3033 3035 3036 3038 3039 3039 3039 3040 3039 3037 3038 3039 3040 3043 3045 3047 3049 3051 3055 3058 3061 3065 3069 3073
2989 2995 3002 3008 3014 3019 3024 3027 3029 3031 3034 3035 3036 3037 3038 3039 3040 3039 3038 3039 3040 3042 3044 3046 3048 3050 3053 3055 3058 3062 3064 3069
2986 2991 2999 3006 3011 3016 3021 3024 3026 3027 3029 3031 3033 3035 3037 3038 3039 3040 3040 3039 3040 3041 3042 3044 3046 3048 3050 3051 3054 3057 3059 3063
2984 2989 2997 3003 3007 3012 3015 3019 3021 3022 3024 3026 3028 3031 3033 3036 3038 3038 3039 3040 3041 3041 3042 3042 3044 3046 3047 3049 3050 3051 3053 3056
2985 2989 2993 2997 3003 3007 3010 3014 3016 3018 3019 3021 3024 3027 3029 3031 3033 3036 3037 3038 3039 3040 3040 3041 3042 3044 3044 3045 3045 3046 3047 3049
2984 2988 2990 2994 3000 3004 3008 3010 3013 3015 3017 3019 3020 3021 3022 3024 3026 3029 3030 3032 3033 3035 3036 3037 3039 3039 3040 3041 3041 3042 3042 3042
2989 2990 2991 2993 2998 3001 3005 3008 3010 3013 3015 3016 3017 3018 3020 3021 3023 3023 3025 3027 3028 3029 3030 3031 3032 3033 3034 3035 3036 3036 3036 3036
2988 2990 2992 2994 2996 2999 3001 3004 3006 3008 3010 3011 3012 3014 3017 3018 3019 3020 3021 3022 3022 3022 3023 3024 3025 3025 3027 3027 3028 3026 3026 3027
2988 2991 2990 2991 2992 2996 2998 2999 3001 3003 3005 3006 3007 3008 3010 3012 3014 3015 3015 3015 3016 3016 3016 3016 3017 3017 3018 3018 3017 3015 3015 3016